Location: Unspecified
(0.0000°N, 0.0000°E)
Time: 20:32:22
(UTC+00:00)

deb r/b Ablestar - Visible Passes

Search period start: 06 March 2026 00:00
Search period end: 16 March 2026 00:00
Orbit: 864 x 1720 km, 66.5° (Epoch: 6 March)

Date Brightness Start Highest point End Pass type
(mag) Time Alt. Az. Time Alt. Az. Time Alt. Az.
12 Mar ? 19:53:59 10° NNE 19:54:01 10° NNE 19:54:01 10° NNE visible
13 Mar ? 20:02:16 10° N 20:03:57 17° N 20:03:57 17° N visible
14 Mar ? 20:10:59 10° N 20:14:02 27° N 20:14:02 27° N visible
15 Mar ? 20:20:03 10° NNW 20:24:14 39° NNW 20:24:14 39° NNW visible
